Regional Weather Roundup
Issued by NWS

Home | Current Version | Previous Version | Graphics & Text | Print | Product List | Glossary On
Versions: 1 2 3 4 5 6 7 8 9 10 11 12 13 14 15 16 17 18 19 20 21 22 23 24 25 26 27 28 29 30 31 32 33 34 35 36 37 38 39 40 41 42 43 44 45 46 47 48 49 50
000
ASUS43 KLOT 061722
RWRIL

ILLINOIS REGIONAL WEATHER ROUNDUP
NATIONAL WEATHER SERVICE CHICAGO/ROMEOVILLE IL
1200 PM CDT MON JUL 06 2015

NOTE: "FAIR" INDICATES FEW OR NO CLOUDS BELOW 12,000 FEET WITH NO
SIGNIFICANT WEATHER AND/OR OBSTRUCTIONS TO VISIBILITY.

* THESE STATIONS ARE NOT UNDER NWS QUALITY CONTROL. THEY ALSO MAY NOT
  REPORT WEATHER SUCH AS PRECIPITATION OR FOG.

ILZ001-002-007-009-015-016-024-061800-
NORTHWEST ILLINOIS

CITY           SKY/WX    TMP DP  RH WIND       PRES   REMARKS
MOLINE         CLOUDY    78  69  73 S6        29.92F HX  80
STERLING*      CLOUDY    73  70  88 CALM      29.96F
SAVANNA*       CLOUDY    73  70  89 CALM      29.92F
$$

ILZ003-004-008-010-011-017-018-061800-
NORTH CENTRAL ILLINOIS

CITY           SKY/WX    TMP DP  RH WIND       PRES   REMARKS
ROCKFORD       TSTM      74  70  87 W9        29.96S
FREEPORT*      RAIN      71  69  95 SW5       29.97F
ROCHELLE*      CLOUDY    79  72  79 SW12      29.94S HX  81
DE KALB*       PTSUNNY   79  71  75 S18       29.94F HX  82
PERU*          CLOUDY    82  71  68 S13       29.94F HX  87
$$

ILZ005-006-012>014-019>023-061800-
NORTHEAST ILLINOIS

CITY           SKY/WX    TMP DP  RH WIND       PRES   REMARKS
CHICAGO-OHARE  CLOUDY    82  69  64 S15G25    29.94F HX  85
CHICAGO-MIDWAY CLOUDY    84  68  58 S17       29.95F HX  87
AURORA         PTSUNNY   84  71  65 S17       29.94F HX  89
LANSING*       CLOUDY    82  66  58 SW16G22   29.97F HX  85
JOLIET*        PTSUNNY   84  73  67 S12G18    29.95F HX  90
WAUKEGAN       CLOUDY    82  69  64 S16       29.93F HX  85
DUPAGE AIRPORT PTSUNNY   81  70  69 S16G24    29.93F HX  84
KANKAKEE*      PTSUNNY   83  72  68 S13G20    30.00F HX  88
WHEELING       CLOUDY    83  69  62 S16       29.95F HX  86
MORRIS*        PTSUNNY   84  71  63 S16G22    29.93F HX  89
ROMEOVILLE*    PTSUNNY   83  68  60 S17G24    29.95F HX  86
NORTHERLY ISL    N/A     81  67  62 S17         N/A  HX  83
$$

LMZ740>746-061800-
SOUTHERN LAKE MICHIGAN

STATION/POSITION SKY/WX   TEMP    WIND        PRES    VSBY  WAVE
                          AIR SEA DIR/SP/G                  HT/PER
                          (F)     (DEG/KT/KT) (MB)    (MI)  (FT/S)
HARRISON CRIB              78     190/ 20/ 23   N/A
BURNHAM HARBOR             81     190/ 17/ 17   N/A
CALUMET HARBOR             80     190/ 11/ 15   N/A
BURNS HARBOR               79     190/ 12/ 17 1016.6S
MICHIGAN CITY              79     160/ 11/ 15   N/A
MICHIGAN CITY 6N           75 67  190/ 10/ 14   N/A           1
ST. JOSEPH                 71 66  220/  6/  6   N/A           1
$$

ILZ025>027-034>036-040-047-049-050-058-095>099-061800-
WEST-CENTRAL ILLINOIS

CITY           SKY/WX    TMP DP  RH WIND       PRES   REMARKS
QUINCY         CLOUDY    81  73  76 S10       29.94F HX  86
GALESBURG*     CLOUDY    78  72  82 S9        29.95F HX  80
MACOMB*        CLOUDY    80  73  78 SW7       29.97S HX  85
JACKSONVILLE*  PTSUNNY   87  76  70 SW9       29.96F HX  97
PITTSFIELD*    CLOUDY    85  74  70 SW8       29.97F HX  92
$$

ILZ028>032-037-038-041>044-048-051>054-059>061-061800-
CENTRAL ILLINOIS

CITY           SKY/WX    TMP DP  RH WIND       PRES   REMARKS
PONTIAC        PTSUNNY   84  76  75 S15       29.97F HX  92
BLOOMINGTON    PTSUNNY   83  75  76 S20       29.99F HX  90
DECATUR        MOSUNNY   84  73  69 S14       30.00F HX  90
PEORIA         PTSUNNY   85  74  69 S12       29.95F HX  92
LACON*         CLOUDY    82  73  72 SW12      29.93F HX  87
LINCOLN*       PTSUNNY   85  74  70 S10       29.97F HX  92
SPRINGFIELD    PTSUNNY   86  75  69 S9G16     29.98F HX  95
TAYLORVILLE    PTSUNNY   81  73  78 S9        30.00F HX  85
$$

ILZ033-039-045-046-055>057-062-063-061800-
EAST-CENTRAL ILLINOIS

CITY           SKY/WX    TMP DP  RH WIND       PRES   REMARKS
CHAMPAIGN      PTSUNNY   83  72  69 SW13      30.02F HX  88
DANVILLE*      MOSUNNY   81  71  73 S12       30.01F HAZE    HX  85
RANTOUL*       PTSUNNY   84  72  67 S10       30.01F HX  90
MATTOON        MOSUNNY   82  72  71 S14       30.03S HX  87
PARIS*         SUNNY     83  72  69 SW10      30.04F HX  88
$$

ILZ079-100>102-061800-
SOUTHWEST ILLINOIS

CITY           SKY/WX    TMP DP  RH WIND       PRES   REMARKS
ALTON          PTSUNNY   86  81  84 S10       30.00F HX 102
BELLEVILLE     PTSUNNY   85  78  80 S9G17     29.99F HX  96
CAHOKIA*       MOSUNNY   87  74  64 MISG      29.99F HX  95
SPARTA*        PTSUNNY   83  74  74 S10G16    30.04F HX  90
$$

ILZ064>066-069>071-074>076-080>082-084>086-088>090-092>094-061800-
SOUTH-CENTRAL ILLINOIS

CITY           SKY/WX    TMP DP  RH WIND       PRES   REMARKS
CARBONDALE     CLOUDY    80  72  76 S9        30.06S HX  84
CAIRO*         MOSUNNY   82  73  76 S7        30.07F HX  87
EFFINGHAM*     MOSUNNY   84  69  61 S10       30.04F HX  88
MARION         PTSUNNY   82  75  78 S12       30.06F HX  89
MT. VERNON     CLOUDY    81  72  74 S8        30.06S HX  84
CENTRALIA*     CLOUDY    80  71  74 S13       30.04F HX  83
SALEM*         CLOUDY    82  73  72 S8        30.04F HX  88
$$

ILZ067-068-072-073-078-083-087-091-061800-
SOUTHEAST ILLINOIS

CITY           SKY/WX    TMP DP  RH WIND       PRES   REMARKS
LAWRENCEVILLE  MOSUNNY   85  72  65 SW13      30.05F HX  91
FLORA*         SUNNY     80  72  76 SW8       30.06R HX  84
FAIRFIELD*     CLOUDY    82  74  77 S8        30.05S HX  88
HARRISBURG*    PTSUNNY   83  73  73 S8        30.07F HX  88
ROBINSON*      MOSUNNY   84  71  64 SW9       30.05F HX  88
CARMI*         PTSUNNY   83  69  61 S9        30.06F HX  87
$$

ABBREVIATIONS USED IN REMARKS
   TC - TEMPERATURE IN CELSIUS
  WCI - WIND CHILL INDEX
   HX - HEAT INDEX
  VSB - VISIBILITY
$$




USA.gov is the U.S. government's official web portal to all federal, state and local government web resources and services.